This is the latest recevied weather packets stored in our database for station/object KB9HUO. If no packets are shown the sender has not sent any weather packets the latest 10 day(s).
| Time | Temp. | Humidity | Pressure | Rain* | Wind** | Luminosity | Snow |
|---|---|---|---|---|---|---|---|
| 1788194191 | 32.22° C | 63% | 1021 hPa | 0 mm | - | 666 W/m² | - |
| 1788193887 | 31.67° C | 64% | 1021 hPa | 0 mm | - | 658 W/m² | - |
| 1788193592 | 31.67° C | 67% | 1021 hPa | 0 mm | - | 654 W/m² | - |
| 1788193283 | 31.67° C | 65% | 1021 hPa | 0 mm | - | 651 W/m² | - |
| 1788192980 | 31.67° C | 66% | 1020.7 hPa | 0 mm | - | 640 W/m² | - |
| 1788192676 | 31.67° C | 67% | 1020.9 hPa | 0 mm | - | 630 W/m² | - |
| 1788192376 | 31.67° C | 67% | 1020.9 hPa | 0 mm | - | 620 W/m² | - |
| 1788192071 | 31.67° C | 66% | 1020.8 hPa | 0 mm | - | 617 W/m² | - |
| 1788191771 | 31.67° C | 66% | 1020.7 hPa | 0 mm | - | 598 W/m² | - |
| 1788191466 | 31.67° C | 66% | 1020.9 hPa | 0 mm | - | 595 W/m² | - |
| 1788191162 | 31.67° C | 67% | 1020.8 hPa | 0 mm | - | 584 W/m² | - |
| 1788190862 | 31.11° C | 67% | 1020.9 hPa | 0 mm | - | 574 W/m² | - |
| 1788190561 | 31.11° C | 69% | 1020.8 hPa | 0 mm | - | 565 W/m² | - |
| 1788190258 | 30.56° C | 69% | 1020.9 hPa | 0 mm | - | 550 W/m² | - |
| 1788189953 | 30.56° C | 69% | 1021 hPa | 0 mm | - | 541 W/m² | - |
| 1788189649 | 30° C | 71% | 1021 hPa | 0 mm | - | 525 W/m² | - |
| 1788189348 | 30° C | 71% | 1021 hPa | 0 mm | - | 89 W/m² | - |
| 1788189044 | 30° C | 72% | 1021 hPa | 0 mm | - | 95 W/m² | - |
| 1788188738 | 30° C | 71% | 1021.2 hPa | 0 mm | - | 151 W/m² | - |
| 1788188434 | 29.44° C | 72% | 1021 hPa | 0 mm | - | 166 W/m² | - |
| 1788188128 | 29.44° C | 72% | 1021 hPa | 0 mm | - | 199 W/m² | - |
| 1788187825 | 28.89° C | 73% | 1020.9 hPa | 0 mm | - | 84 W/m² | - |
| 1788187520 | 28.89° C | 73% | 1021 hPa | 0 mm | - | 79 W/m² | - |
| 1788187216 | 28.89° C | 75% | 1020.8 hPa | 0 mm | - | 75 W/m² | - |
| 1788186916 | 28.33° C | 75% | 1020.7 hPa | 0 mm | - | 70 W/m² | - |
* Rain latest hour (hover to see other rain measurements)
** Current wind speed in m/s (hover to see current wind gust speed)